[[{"header":{"parameterUnit":"m.s-1","parameterCategory":1,"la1":30.2991,"la2":30.254,"lo1":-89.0895,"lo2":-89.0444,"dy":0.0017,"dx":0.0017,"nx":28,"ny":28,"refTime":"2023-08-04T09:00:00:Z","depth":0,"parameterNumber":2,"parameterNumberName":"U-component_of_WINDS"},"data":[0,0,0,0,0,0,0,0,0,0,0,0,0,0,0,0,0,0,0,0,0,0,0,0,0,0,0,0,0,0,0,0,0,0,0,0,0,0,0,0,0,0,0,0,0,0,0,0,0,0,0,0,0,0,0,0,0,0,1.0472,1.0472,0,1.0546,1.0547,1.0548,1.0562,1.0562,1.0561,1.0561,1.0642,1.0645,1.0647,0,0,0,0,0,0,0,0,0,0,0,0,0,1.0347,1.0349,1.0472,1.0473,1.0473,1.0546,1.0547,1.0548,1.0562,1.0562,1.0561,1.056,1.0641,1.0644,1.0648,0,0,0,0,0,0,0,0,0,0,0,0,0,1.0409,1.035,1.0471,1.0489,1.0492,1.0546,1.0547,1.0549,1.0563,1.0562,1.0561,1.056,1.064,1.0644,1.0648,1.0692,0,0,1.0661,1.0662,0,0,0,0,0,0,0,0,1.0406,1.0414,1.0486,1.0488,1.0491,1.0544,1.0533,1.0597,1.0563,1.0536,1.0561,1.0559,1.061,1.0617,1.0633,1.0695,1.0699,1.0661,1.0663,1.0665,1.0666,0,0,0,0,0,0,0,1.0401,1.0411,1.0501,1.0487,1.049,1.0495,1.0503,1.0545,1.0578,1.0538,1.0539,1.0548,1.0612,1.0629,1.0635,1.07,1.0661,1.0664,1.0667,1.0669,1.0804,1.0805,0,0,0,0,0,0,1.0393,1.0407,1.0499,1.0504,1.0445,1.0498,1.0507,1.0528,1.0577,1.0583,1.0548,1.0548,1.0623,1.063,1.0638,1.0694,1.0665,1.0669,1.0671,1.0803,1.0804,1.0806,0,0,0,0,0,0,1.039,1.0401,1.0496,1.0456,1.0468,1.0501,1.0525,1.053,1.0547,1.0585,1.0591,1.056,1.0622,1.0632,1.0678,1.0697,1.0671,1.0675,1.0802,1.0804,1.0805,1.0805,0,0,0,0,0,0,1.0387,1.04,1.0416,1.0456,1.047,1.0533,1.0526,1.0532,1.0554,1.0554,1.0597,1.0604,1.0622,1.0672,1.0682,1.0702,1.0678,1.08,1.0803,1.0805,1.0803,1.0806,1.0808,0,0,0,0,0,1.0382,1.0413,1.0416,1.0427,1.049,1.0534,1.0543,1.0562,1.0555,1.0572,1.0596,1.0602,1.0693,1.0677,1.0688,1.0709,1.0799,1.0802,1.0804,1.0802,1.0805,1.0808,0,0,0,0,0,0,1.0375,1.0419,1.0423,1.0467,1.0497,1.0536,1.0558,1.0565,1.0598,1.0597,1.0622,1.0631,1.0677,1.0698,1.0679,1.0755,1.0746,1.0751,1.074,1.0744,1.0746,1.0741,1.0681,0,0,0,0,0,1.0379,1.0409,1.0446,1.0482,1.0496,1.0525,1.0545,1.0557,1.059,1.0603,1.063,1.0663,1.0699,1.0722,1.0757,1.0806,1.0817,1.0826,1.0829,1.0831,1.0836,1.0865,1.087,1.0814,1.0814,1.0814,0,0,1.0387,1.0414,1.0432,1.0481,1.0506,1.0539,1.0535,1.057,1.0596,1.0608,1.0654,1.0675,1.0713,1.0761,1.0784,1.078,1.0853,1.0834,1.0836,1.0839,1.0868,1.0874,1.0878,1.0816,1.0816,1.0815,0,0,1.0418,1.0441,1.0474,1.0499,1.0535,1.0554,1.0562,1.0601,1.0616,1.0661,1.0672,1.0703,1.0764,1.0791,1.0813,1.0856,1.0864,1.0867,1.0882,1.091,1.0915,1.0919,1.0936,1.0942,1.0871,1.0871,1.0871,0,1.0424,1.0472,1.0491,1.0525,1.0548,1.0559,1.0594,1.0618,1.0665,1.0681,1.0676,1.0753,1.078,1.0835,1.0846,1.0862,1.0874,1.0863,1.0912,1.0917,1.0921,1.0938,1.0944,1.0872,1.0872,1.0872,1.0872,0,1.0479,1.0512,1.0535,1.0579,1.0604,1.0638,1.0664,1.0687,1.0697,1.0717,1.0765,1.0797,1.0839,1.0853,1.0864,1.0911,1.0908,1.0907,1.0898,1.0926,1.0942,1.0949,1.0872,1.0872,1.0872,1.0872,0,0,1.0508,1.0562,1.057,1.0591,1.0633,1.066,1.0696,1.0737,1.0757,1.0789,1.0822,1.0873,1.0873,1.0898,1.0912,1.0937,1.0972,1.0934,1.0935,1.0941,1.1027,1.1029,1.1036,1.0976,1.0977,1.0978,1.1025,0,1.0546,1.0609,1.0627,1.0681,1.0714,1.0726,1.0758,1.0788,1.0808,1.084,1.0863,1.09,1.0896,1.0911,1.0936,1.0962,1.0989,1.0959,1.1009,1.101,1.1,1.1044,1.1045,1.1087,1.1031,1.1032,1.1033,0,1.0598,1.0631,1.0688,1.0727,1.0741,1.0769,1.0809,1.0838,1.0874,1.0887,1.0915,1.0927,1.0968,1.0956,1.1013,1.0992,1.1013,1.1029,1.1032,1.1038,1.1024,1.1053,1.1101,1.1108,1.1043,1.1042,1.1041,0,1.0616,1.0674,1.0716,1.0734,1.078,1.0799,1.082,1.0854,1.0878,1.0913,1.0929,1.0968,1.099,1.1022,1.1045,1.1034,1.1101,1.1091,1.1115,1.1115,1.113,1.1129,1.1183,1.1141,1.1141,1.1141,1.1141,0,1.0658,1.0693,1.0725,1.0751,1.0792,1.0813,1.0853,1.0874,1.0905,1.0937,1.095,1.098,1.1008,1.1043,1.1061,1.1107,1.1117,1.113,1.1135,1.113,1.1128,1.1146,1.1144,1.1143,1.1142,1.1142,1.1142,0,1.0685,1.0708,1.0755,1.0794,1.0805,1.0834,1.0869,1.0896,1.0916,1.0956,1.0967,1.1,1.1041,1.1067,1.112,1.1133,1.1184,1.1187,1.1172,1.1174,1.1198,1.1196,1.1266,1.1278,1.1226,1.1227,1.1227,0,1.071,1.0737,1.078,1.0802,1.0822,1.0857,1.0881,1.0903,1.0928,1.0971,1.0994,1.1035,1.107,1.1136,1.1166,1.1207,1.1213,1.1234,1.1219,1.1214,1.1215,1.1214,1.1218,1.1238,1.1238,1.1238,1.1239,0,1.0754,1.0764,1.0797,1.0835,1.0863,1.0894,1.0926,1.0943,1.0972,1.0999,1.1041,1.1068,1.1122,1.1164,1.1208,1.1231,1.1241,1.1243,1.1251,1.1247,1.1238,1.1245,1.118,1.1242,1.1241,1.1241,1.1241,1.1241,1.0782,1.0808,1.0842,1.0879,1.0905,1.0934,1.0962,1.0985,1.102,1.1065,1.1076,1.1121,1.1158,1.1217,1.1241,1.1278,1.1275,1.1286,1.129,1.1292,1.1294,1.123,1.1286,1.1286,1.1286,1.1285,1.1285,0,1.0828,1.0851,1.0885,1.0928,1.0958,1.0962,1.0997,1.1022,1.1061,1.1093,1.1127,1.1176,1.1218,1.1251,1.1294,1.1317,1.1322,1.1328,1.1327,1.1333,1.1293,1.1282,1.1323,1.1323,1.1323,1.1323,1.1323,1.1323,1.0855,1.0899,1.0914,1.0971,1.0994,1.1036,1.1056,1.1084,1.1111,1.1164,1.1198,1.1219,1.1253,1.1298,1.1337,1.1346,1.1362,1.1367,1.1377,1.1339,1.1335,1.1332,1.1322,1.137,1.137,1.1414,1.1415,1.1415]},{"header":{"parameterUnit":"m.s-1","parameterCategory":1,"la1":30.2991,"la2":30.254,"lo1":-89.0895,"lo2":-89.0444,"dy":0.0017,"dx":0.0017,"nx":28,"ny":28,"refTime":"2023-08-04T09:00:00:Z","depth":0,"parameterNumber":3,"parameterNumberName":"V-component_of_WINDS"},"data":[0,0,0,0,0,0,0,0,0,0,0,0,0,0,0,0,0,0,0,0,0,0,0,0,0,0,0,0,0,0,0,0,0,0,0,0,0,0,0,0,0,0,0,0,0,0,0,0,0,0,0,0,0,0,0,0,0,0,1.5418,1.5419,0,1.5459,1.5459,1.546,1.5447,1.5446,1.5445,1.5444,1.5485,1.5487,1.5489,0,0,0,0,0,0,0,0,0,0,0,0,0,1.5326,1.5328,1.5418,1.5419,1.5419,1.5459,1.5459,1.546,1.5447,1.5446,1.5445,1.5444,1.5484,1.5487,1.5489,0,0,0,0,0,0,0,0,0,0,0,0,0,1.5366,1.5329,1.5418,1.5418,1.5418,1.5459,1.5459,1.546,1.5447,1.5446,1.5445,1.5444,1.5484,1.5486,1.5489,1.5532,0,0,1.5498,1.5499,0,0,0,0,0,0,0,0,1.5364,1.537,1.5417,1.5418,1.5418,1.5446,1.5442,1.5484,1.5448,1.5436,1.5444,1.5443,1.5473,1.5477,1.5487,1.5534,1.5536,1.5498,1.55,1.5501,1.5502,0,0,0,0,0,0,0,1.5361,1.5368,1.5434,1.5418,1.5419,1.5414,1.5419,1.545,1.5461,1.5437,1.5436,1.5441,1.5473,1.5484,1.5488,1.5536,1.5498,1.55,1.5502,1.5503,1.5616,1.5617,0,0,0,0,0,0,1.5359,1.5366,1.5433,1.5435,1.5388,1.5417,1.5422,1.5439,1.5461,1.5463,1.5442,1.5441,1.548,1.5485,1.5489,1.5538,1.5501,1.5504,1.5505,1.5614,1.5616,1.5617,0,0,0,0,0,0,1.5357,1.5365,1.5431,1.54,1.5409,1.542,1.5439,1.544,1.5451,1.5465,1.5467,1.5452,1.5479,1.5485,1.5521,1.5539,1.5505,1.5507,1.5613,1.5615,1.5617,1.5637,0,0,0,0,0,0,1.5354,1.5364,1.5382,1.5401,1.541,1.5463,1.544,1.5442,1.5456,1.5454,1.5474,1.5476,1.5479,1.5516,1.5523,1.5542,1.551,1.5611,1.5614,1.5616,1.5635,1.564,1.5644,0,0,0,0,0,1.5351,1.5387,1.5383,1.5391,1.5433,1.5464,1.547,1.5472,1.5458,1.5475,1.5483,1.5476,1.5536,1.552,1.5528,1.5548,1.561,1.5613,1.5616,1.5633,1.5639,1.5644,0,0,0,0,0,0,1.5371,1.539,1.5385,1.5429,1.5445,1.5462,1.5484,1.5479,1.5499,1.5496,1.5498,1.5502,1.5538,1.5547,1.5528,1.5589,1.5571,1.5576,1.5581,1.5587,1.5591,1.5588,1.5512,0,0,0,0,0,1.538,1.5405,1.542,1.5457,1.5465,1.5473,1.5487,1.5487,1.5503,1.551,1.5521,1.5537,1.5559,1.5574,1.5595,1.5637,1.5639,1.5654,1.5658,1.5662,1.5665,1.5684,1.569,1.5627,1.5627,1.5627,0,0,1.54,1.5413,1.5429,1.5461,1.5473,1.5497,1.5479,1.5506,1.5523,1.5514,1.5547,1.5556,1.5573,1.561,1.5628,1.5619,1.5683,1.5666,1.5668,1.567,1.5687,1.5693,1.5698,1.5629,1.5629,1.5628,0,0,1.5447,1.5461,1.5491,1.5504,1.5522,1.5527,1.5534,1.5551,1.5556,1.5589,1.5581,1.5601,1.5641,1.5652,1.5663,1.5711,1.5704,1.5718,1.574,1.5758,1.5763,1.5767,1.5781,1.5787,1.5722,1.5722,1.5722,0,1.547,1.5506,1.5508,1.5534,1.5547,1.5539,1.5568,1.558,1.5604,1.5612,1.5603,1.5649,1.5661,1.5698,1.5709,1.572,1.5726,1.5715,1.5762,1.5767,1.5771,1.5784,1.579,1.5723,1.5723,1.5723,1.5723,0,1.553,1.5555,1.5577,1.5599,1.5615,1.5643,1.5647,1.5662,1.5659,1.5664,1.5696,1.5709,1.5731,1.5741,1.574,1.5777,1.5771,1.5762,1.5744,1.5778,1.579,1.5796,1.5725,1.5724,1.5724,1.5724,0,0,1.5593,1.5613,1.5621,1.5629,1.5647,1.5666,1.5692,1.5713,1.5724,1.5741,1.5761,1.5792,1.5783,1.5795,1.5795,1.5811,1.5844,1.58,1.58,1.5805,1.5882,1.5887,1.5893,1.5839,1.5841,1.5841,1.5879,0,1.564,1.5685,1.5685,1.5726,1.5747,1.5739,1.576,1.5773,1.5778,1.5795,1.58,1.5821,1.5809,1.5815,1.5831,1.5836,1.5859,1.5834,1.5856,1.5857,1.585,1.59,1.5906,1.5942,1.5885,1.5885,1.5886,0,1.5701,1.5717,1.576,1.5771,1.578,1.58,1.5817,1.5834,1.5847,1.5849,1.5861,1.5858,1.5882,1.5863,1.5895,1.5878,1.5887,1.5891,1.5892,1.5893,1.5872,1.59,1.5954,1.5958,1.5894,1.5894,1.5893,0,1.5738,1.5771,1.5799,1.5807,1.5822,1.5835,1.5842,1.5854,1.5865,1.588,1.5887,1.5905,1.5914,1.5927,1.5927,1.5915,1.5958,1.5941,1.5958,1.5958,1.5967,1.5966,1.602,1.5976,1.5976,1.5976,1.5976,0,1.5788,1.5814,1.5816,1.5833,1.5861,1.586,1.5887,1.5892,1.5902,1.5919,1.5913,1.5929,1.593,1.5946,1.5946,1.597,1.5975,1.5976,1.5975,1.5975,1.5975,1.598,1.5977,1.5977,1.5977,1.5977,1.5976,0,1.5834,1.5837,1.5867,1.5877,1.588,1.59,1.5908,1.5924,1.5927,1.5948,1.5953,1.5957,1.5975,1.5977,1.5999,1.5999,1.6027,1.6025,1.6022,1.6021,1.6038,1.6035,1.6096,1.6102,1.6056,1.6056,1.6057,0,1.5866,1.5885,1.5896,1.5907,1.5914,1.5931,1.5942,1.5941,1.5952,1.5966,1.5979,1.5997,1.601,1.6039,1.6043,1.6059,1.6056,1.6076,1.6058,1.6056,1.6053,1.6051,1.6051,1.6079,1.6079,1.608,1.608,0,1.592,1.5919,1.5934,1.5949,1.5962,1.5974,1.5985,1.5994,1.5994,1.6007,1.6024,1.6035,1.6055,1.6071,1.6086,1.6091,1.6085,1.6086,1.609,1.6089,1.6086,1.6085,1.6029,1.6084,1.6084,1.6083,1.6083,1.6083,1.5957,1.5972,1.5981,1.5998,1.6006,1.6015,1.6029,1.6033,1.6048,1.6063,1.6062,1.6081,1.609,1.6108,1.6115,1.6129,1.6122,1.6129,1.613,1.6132,1.6132,1.6085,1.6132,1.6132,1.6132,1.6131,1.6131,0,1.6008,1.6013,1.6028,1.6042,1.6055,1.6047,1.6058,1.6069,1.6085,1.6094,1.6107,1.6125,1.614,1.6145,1.6159,1.6169,1.6166,1.6172,1.617,1.6171,1.6139,1.6132,1.6174,1.6174,1.6174,1.6174,1.6174,1.6174,1.6036,1.606,1.606,1.6086,1.6091,1.6108,1.6115,1.6123,1.6129,1.615,1.6162,1.6165,1.6171,1.6185,1.6197,1.6198,1.6203,1.621,1.6209,1.6178,1.6174,1.617,1.6164,1.6211,1.6211,1.624,1.6241,1.6241]}]]